Regional Weather Roundup
Issued by NWS

Home | Current Version | Previous Version | Graphics & Text | Print | Product List | Glossary On
Versions: 1 2 3 4 5 6 7 8 9 10 11 12 13 14 15 16 17 18 19 20 21 22 23 24 25 26 27 28 29 30 31 32 33 34 35 36 37 38 39 40 41 42 43 44 45 46 47 48 49 50
000
ASUS43 KOAX 290402
RWRNE

WEATHER ROUNDUP FOR NEBRASKA
NATIONAL WEATHER SERVICE OMAHA NE
1100 PM CDT THU JUL 28 2016

NOTES: SATELLITE DATA IS BEING USED TO AUGMENT CLOUD COVER ABOVE
       12000 FEET.
       "FAIR" INDICATES FEW OR NO CLOUDS BELOW 12,000 FEET WITH NO
       SIGNIFICANT WEATHER AND/OR OBSTRUCTIONS TO VISIBILITY.

  * THESE STATIONS DO NOT REPORT WEATHER SUCH AS RAIN...SNOW OR FOG.

NEZ001>004-019>022-054>056-290500-
NEBRASKA PANHANDLE

CITY           SKY/WX    TMP DP  RH WIND       PRES   REMARKS
SCOTTSBLUFF    CLEAR     67  61  81 SE3       30.17R
ALLIANCE       PTCLDY    61  57  87 SE3       30.17R
CHADRON        CLEAR     64  59  83 NE5       30.15R
KIMBALL        CLEAR     62  56  82 SE5       30.23R
SIDNEY         CLEAR     61  58  90 SE5       30.20R
$$

NEZ057>060-069>072-079>082-290500-
SOUTHWEST NEBRASKA

CITY           SKY/WX    TMP DP  RH WIND       PRES   REMARKS
NORTH PLATTE   CLEAR     62  60  93 CALM      30.12R
IMPERIAL       CLEAR     64  60  87 E6        30.14R
LEXINGTON      CLEAR     65  63  92 CALM      30.12R
MCCOOK         CLEAR     64  60  87 N5        30.11R
OGALLALA       CLEAR     67  62  85 CALM      30.14F
$$

NEZ005>010-023>029-035>040-094-290500-
NORTH CENTRAL NEBRASKA

CITY           SKY/WX    TMP DP  RH WIND       PRES   REMARKS
VALENTINE      CLEAR     62  59  90 S3        30.13R
AINSWORTH      PTCLDY    62  62 100 NE3       30.14R
BROKEN BOW     TSTM      63  62  97 SE7       30.13R FOG
O`NEILL        RAIN      67  65  91 CALM      30.10R
ORD            LGT RAIN  68  64  87 NW5       30.09R
THEDFORD       PTCLDY    65  63  91 E8        30.15R
$$

NEZ041-046>049-061>064-073>077-083>087-290500-
SOUTH CENTRAL NEBRASKA

CITY           SKY/WX    TMP DP  RH WIND       PRES   REMARKS
GRAND ISLAND   CLOUDY    68  66  93 CALM      30.09R
AURORA         CLEAR     67  66  96 CALM      30.08R
HASTINGS       CLOUDY    67  65  93 CALM      30.10R
HEBRON         CLEAR     71  65  82 NE3       30.06R
HOLDREGE       CLEAR     65  64  93 CALM      30.11R
KEARNEY *      PTCLDY    70  10  10 CALM      30.11R
YORK           MOCLDY    66  64  94 NE5       30.08R
$$

NEZ011>018-030>034-042>045-290500-
NORTHEAST NEBRASKA

CITY           SKY/WX    TMP DP  RH WIND       PRES   REMARKS
NORFOLK        PTCLDY    71  62  73 CALM      30.06R
ALBION         CLOUDY    69  65  88 CALM      30.08S
BLAIR          CLOUDY    71  65  80 CALM      30.05R
FREMONT        CLOUDY    73  62  68 CALM      30.06R
TEKAMAH        MOCLDY    71  65  81 NW3       30.04R
WAYNE          MOCLDY    66  64  91 NE3       30.07R
$$

NEZ050>053-065>068-078-088>093-290500-
SOUTHEAST NEBRASKA

CITY           SKY/WX    TMP DP  RH WIND       PRES   REMARKS
LINCOLN        CLOUDY    73  65  75 N7        30.06R
OMAHA EPPLEY   CLOUDY    75  62  64 E7        30.03R
BEATRICE       MOCLDY    73  63  71 NE7       30.04R
FALLS CITY     CLOUDY    75  67  76 N7        29.99R
NEBRASKA CITY  CLOUDY    72  65  80 NE5       30.03R
PLATTSMOUTH    CLOUDY    72  64  76 CALM      30.04R
$$

NEZ044-045-051>053-067-290500-
OMAHA AREA

CITY           SKY/WX    TMP DP  RH WIND       PRES   REMARKS
OMAHA EPPLEY   CLOUDY    75  62  64 E7        30.03R
BLAIR          CLOUDY    71  65  80 CALM      30.05R
FREMONT        CLOUDY    73  62  68 CALM      30.06R
MILLARD        CLOUDY    75  62  64 CALM      30.03R
PLATTSMOUTH    CLOUDY    72  64  76 CALM      30.04R
WAHOO          MOCLDY    72  67  84 CALM      30.05R
$$



USA.gov is the U.S. government's official web portal to all federal, state and local government web resources and services.